sat.trackr.live / text

‹ back to catalog

STARLINK-31711

NORAD 59438 · 2024-065T

PAYLOAD ACTIVE UNKNOWN

§ Identity

Operator
Country
US
Launch date
2024-04-07
Launch site
AFWTR
Launch vehicle
Mass (kg)
RCS (m²)

Purposes: comms

External: N2YO · Heavens-Above · Gunter

§ Orbital elements

Epoch: 2026-05-25T02:56:05.436960Z

Period
94.11 min
Inclination
53.1612°
Eccentricity
0.0000903
Mean motion
15.30179152 rev/d
Perigee alt
474.7 km
Apogee alt
475.9 km
Semi-major
6,853.4 km
B*
1.4050e-4
RAAN
286.5033°
Arg perigee
153.8830°
Mean anomaly
206.2216°
Rev number
12,063

§ Raw data

STARLINK-317111 59438U 24065T   26145.12228515  .00003802  00000+0  14050-3 0  99952 59438  53.1612 286.5033 0000903 153.8830 206.2216 15.30179152120631

JSON: /api/v1/satellites/59438 · /tle

For live sub-satellite position, see the globe view (requires WebGL).

§ Visibility from observer

Set your observer location to see the next 7 days of passes ≥ 10°. The values pass through the URL so the page stays shareable.

No JS? Fill the form by hand. The geolocation button needs JavaScript.